| time (UTC) | temp F | wind direction | speed MPH | gust MPH | rain 1hr in | rain 24hr in | rain mn in | humidity % | barometer mb |
| 20260506072959 | 62 | 153 | 0.0 | 5.0 | 0.00 | 0.00 | 0.00 | 56 | 1008.5 |
| 20260506071502 | 63 | 153 | 1.0 | 6.0 | 0.00 | 0.00 | 0.00 | 55 | 1008.9 |
| 20260506061459 | 62 | 257 | 1.0 | 6.0 | 0.00 | 0.00 | 0.00 | 55 | 1009.3 |
| 20260506044504 | 55 | 166 | 0.0 | 7.0 | 0.00 | 0.00 | 0.00 | 73 | 1009.9 |
| 20260506043004 | 55 | 164 | 0.0 | 0.0 | 0.00 | 0.00 | 0.00 | 71 | 1010.0 |
| 20260506041502 | 56 | 164 | 0.0 | 5.0 | 0.00 | 0.00 | 0.00 | 73 | 1010.0 |
| 20260506040006 | 56 | 164 | 0.0 | 0.0 | 0.00 | 0.00 | 0.00 | 72 | 1010.1 |
| 20260506034502 | 57 | 164 | 0.0 | 0.0 | 0.00 | 0.00 | 0.00 | 71 | 1010.2 |
| 20260506031504 | 61 | 164 | 0.0 | 0.0 | 0.00 | 0.00 | 0.00 | 62 | 1009.9 |
| 20260506030005 | 62 | 164 | 0.0 | 2.0 | 0.00 | 0.00 | 0.00 | 55 | 1009.8 |
| 20260506024502 | 65 | 164 | 0.0 | 5.0 | 0.00 | 0.00 | 0.00 | 51 | 1009.8 |
| 20260506023003 | 66 | 181 | 0.0 | 3.0 | 0.00 | 0.00 | 0.00 | 49 | 1010.0 |
| 20260506021502 | 67 | 181 | 0.0 | 2.0 | 0.00 | 0.00 | 0.00 | 47 | 1010.0 |
| 20260506020004 | 68 | 181 | 1.0 | 4.0 | 0.00 | 0.00 | 0.00 | 44 | 1010.0 |
| 20260506014502 | 69 | 140 | 0.0 | 4.0 | 0.00 | 0.00 | 0.00 | 44 | 1009.9 |
| 20260506011502 | 70 | 138 | 1.0 | 7.0 | 0.00 | 0.00 | 0.00 | 40 | 1009.6 |
| 20260506004501 | 71 | 87 | 1.0 | 6.0 | 0.00 | 0.00 | 0.00 | 38 | 1009.2 |
| 20260506003002 | 72 | 154 | 1.0 | 9.0 | 0.00 | 0.00 | 0.00 | 38 | 1008.9 |
| 20260506001504 | 72 | 160 | 4.0 | 10.0 | 0.00 | 0.00 | 0.00 | 36 | 1008.8 |
| 20260506000004 | 73 | 173 | 5.0 | 16.0 | 0.00 | 0.00 | 0.00 | 35 | 1008.6 |
| 20260505234502 | 73 | 159 | 3.0 | 12.0 | 0.00 | 0.00 | 0.00 | 35 | 1008.7 |
| 20260505232959 | 73 | 148 | 3.0 | 9.0 | 0.00 | 0.00 | 0.00 | 34 | 1008.6 |
| 20260505231502 | 73 | 175 | 3.0 | 8.0 | 0.00 | 0.00 | 0.00 | 34 | 1008.6 |
| 20260505230004 | 73 | 165 | 4.0 | 11.0 | 0.00 | 0.00 | 0.00 | 35 | 1008.5 |
| 20260505223001 | 74 | 163 | 6.0 | 22.0 | 0.00 | 0.00 | 0.00 | 35 | 1008.4 |
| 20260505221502 | 74 | 135 | 5.0 | 17.0 | 0.00 | 0.00 | 0.00 | 35 | 1008.5 |
| 20260505214505 | 74 | 155 | 7.0 | 15.0 | 0.00 | 0.00 | 0.00 | 35 | 1008.2 |
| 20260505213006 | 74 | 103 | 7.0 | 15.0 | 0.00 | 0.00 | 0.00 | 35 | 1008.3 |
| 20260505211501 | 74 | 219 | 6.0 | 19.0 | 0.00 | 0.00 | 0.00 | 34 | 1008.2 |
| 20260505210005 | 74 | 170 | 6.0 | 17.0 | 0.00 | 0.00 | 0.00 | 34 | 1008.0 |
| 20260505203001 | 76 | 153 | 9.0 | 21.0 | 0.00 | 0.00 | 0.00 | 32 | 1007.9 |
| 20260505201459 | 76 | 169 | 9.0 | 25.0 | 0.00 | 0.00 | 0.00 | 33 | 1007.9 |
| 20260505200005 | 77 | 166 | 7.0 | 16.0 | 0.00 | 0.00 | 0.00 | 32 | 1007.8 |
| 20260505194501 | 77 | 167 | 8.0 | 18.0 | 0.00 | 0.00 | 0.00 | 32 | 1007.8 |
| 20260505193007 | 77 | 175 | 6.0 | 16.0 | 0.00 | 0.00 | 0.00 | 34 | 1008.0 |
| 20260505191502 | 76 | 174 | 6.0 | 18.0 | 0.00 | 0.00 | 0.00 | 33 | 1008.1 |
| 20260505190005 | 77 | 150 | 7.0 | 20.0 | 0.00 | 0.00 | 0.00 | 29 | 1008.4 |
| 20260505184500 | 77 | 193 | 7.0 | 23.0 | 0.00 | 0.00 | 0.00 | 32 | 1008.5 |
| 20260505180008 | 76 | 162 | 13.0 | 27.0 | 0.00 | 0.00 | 0.00 | 36 | 1008.9 |
| 20260505171500 | 75 | 127 | 7.0 | 20.0 | 0.00 | 0.00 | 0.00 | 36 | 1008.9 |
| 20260505170006 | 75 | 155 | 8.0 | 17.0 | 0.00 | 0.00 | 0.00 | 36 | 1009.1 |
| 20260505164500 | 74 | 146 | 6.0 | 18.0 | 0.00 | 0.00 | 0.00 | 39 | 1009.5 |
| 20260505161501 | 74 | 153 | 6.0 | 17.0 | 0.00 | 0.00 | 0.00 | 42 | 1009.8 |
| 20260505151501 | 71 | 236 | 7.0 | 19.0 | 0.00 | 0.00 | 0.00 | 45 | 1010.3 |
| 20260505124502 | 63 | 128 | 0.0 | 1.0 | 0.00 | 0.00 | 0.00 | 64 | 1011.1 |
| 20260505122959 | 61 | 99 | 0.0 | 3.0 | 0.00 | 0.00 | 0.00 | 66 | 1011.1 |
| 20260505120005 | 58 | 24 | 0.0 | 4.0 | 0.00 | 0.00 | 0.00 | 73 | 1011.0 |
| 20260505113001 | 50 | 304 | 0.0 | 0.0 | 0.00 | 0.00 | 0.00 | 88 | 1010.9 |
| 20260505111500 | 48 | 304 | 0.0 | 0.0 | 0.00 | 0.00 | 0.00 | 88 | 1010.9 |
| 20260505101500 | 47 | 165 | 0.0 | 0.0 | 0.00 | 0.00 | 0.00 | 87 | 1010.5 |
| 20260505100002 | 48 | 165 | 0.0 | 0.0 | 0.00 | 0.00 | 0.00 | 87 | 1010.6 |
| 20260505094458 | 48 | 165 | 0.0 | 0.0 | 0.00 | 0.00 | 0.00 | 86 | 1010.3 |
| 20260505092959 | 48 | 165 | 0.0 | 0.0 | 0.00 | 0.00 | 0.00 | 86 | 1010.2 |
| 20260505091502 | 48 | 165 | 0.0 | 0.0 | 0.00 | 0.00 | 0.00 | 85 | 1010.3 |
| 20260505090001 | 48 | 165 | 0.0 | 0.0 | 0.00 | 0.00 | 0.00 | 84 | 1010.3 |
| 20260505084459 | 48 | 165 | 0.0 | 0.0 | 0.00 | 0.00 | 0.00 | 82 | 1010.2 |
| 20260505082959 | 48 | 165 | 0.0 | 1.0 | 0.00 | 0.00 | 0.00 | 82 | 1010.3 |
| 20260505081457 | 47 | 165 | 0.0 | 0.0 | 0.00 | 0.00 | 0.00 | 82 | 1010.5 |